Data No.,UTC Date,UTC Time,Latitude,Longitude,Course(deg),Temp(degC),Sal(psu)
21,2008/11/5,8:02:00,33-54.8900N,137-10.4200E,169,23.115,34.002
22,2008/11/5,8:03:00,33-54.6500N,137-10.4800E,169,23.108,33.9971
23,2008/11/5,8:04:00,33-54.4300N,137-10.5300E,169,23.106,33.9984
24,2008/11/5,8:05:00,33-54.1900N,137-10.5800E,169,23.101,33.9955
25,2008/11/5,8:06:00,33-53.9700N,137-10.6300E,169,23.134,33.9935
26,2008/11/5,8:07:00,33-53.7400N,137-10.6800E,170,23.179,33.9961
27,2008/11/5,8:08:00,33-53.5100N,137-10.7300E,170,23.163,34.0056
28,2008/11/5,8:09:00,33-53.2800N,137-10.7800E,169,23.131,34.0091
29,2008/11/5,8:10:00,33-53.0300N,137-10.8300E,169,23.142,34.0074
30,2008/11/5,8:11:00,33-52.7900N,137-10.8800E,169,23.141,34.0042
31,2008/11/5,8:12:00,33-52.5600N,137-10.9300E,169,23.141,33.9769
32,2008/11/5,8:13:00,33-52.3300N,137-10.9800E,170,23.123,34.0009
33,2008/11/5,8:14:00,33-52.1000N,137-11.0300E,170,23.126,34.0013
34,2008/11/5,8:15:00,33-51.8600N,137-11.0700E,170,23.088,34.0038
35,2008/11/5,8:16:00,33-51.6300N,137-11.1300E,169,23.027,34.0043
36,2008/11/5,8:17:00,33-51.3900N,137-11.1800E,169,22.959,33.9943
37,2008/11/5,8:18:00,33-51.1600N,137-11.2300E,169,22.894,33.9752
38,2008/11/5,8:19:00,33-50.9200N,137-11.2800E,169,22.886,33.9524
39,2008/11/5,8:20:00,33-50.6800N,137-11.3300E,169,22.908,33.9443
40,2008/11/5,8:21:00,33-50.4500N,137-11.3800E,169,22.965,33.943
41,2008/11/5,8:22:00,33-50.2100N,137-11.4400E,169,23.018,33.9515
42,2008/11/5,8:23:00,33-49.9800N,137-11.4900E,169,23.03,33.966
43,2008/11/5,8:24:00,33-49.7400N,137-11.5400E,169,23.002,33.9809
44,2008/11/5,8:25:00,33-49.5100N,137-11.6000E,169,22.976,33.9812
45,2008/11/5,8:26:00,33-49.2700N,137-11.6500E,168,22.894,33.9799
46,2008/11/5,8:27:00,33-49.0400N,137-11.7100E,169,22.76,33.9719
47,2008/11/5,8:28:00,33-48.8100N,137-11.7600E,169,22.739,33.9305
48,2008/11/5,8:29:00,33-48.5800N,137-11.8100E,169,22.753,33.9042
49,2008/11/5,8:30:00,33-48.3500N,137-11.8600E,169,22.745,33.8949
50,2008/11/5,8:31:00,33-48.1300N,137-11.9100E,169,22.754,33.8966
51,2008/11/5,8:32:00,33-47.9000N,137-11.9600E,169,22.805,33.8993
52,2008/11/5,8:33:00,33-47.6700N,137-12.0100E,169,22.815,33.9
53,2008/11/5,8:34:00,33-47.4400N,137-12.0700E,169,22.824,33.9032
54,2008/11/5,8:35:00,33-47.2100N,137-12.1200E,169,22.834,33.9067
55,2008/11/5,8:36:00,33-46.9800N,137-12.1700E,168,22.849,33.9066
56,2008/11/5,8:37:00,33-46.7400N,137-12.2200E,169,22.851,33.9074
57,2008/11/5,8:38:00,33-46.5200N,137-12.2700E,169,22.87,33.9121
58,2008/11/5,8:39:00,33-46.2900N,137-12.3200E,169,22.894,33.913
59,2008/11/5,8:40:00,33-46.0600N,137-12.3700E,169,22.908,33.9224
60,2008/11/5,8:41:00,33-45.8300N,137-12.4300E,169,22.894,33.9295
61,2008/11/5,8:42:00,33-45.6100N,137-12.4700E,169,22.911,33.9331
62,2008/11/5,8:43:00,33-45.3800N,137-12.5200E,169,22.913,33.9384
63,2008/11/5,8:44:00,33-45.1500N,137-12.5700E,169,22.889,33.9439
64,2008/11/5,8:45:00,33-44.9200N,137-12.6300E,169,22.887,33.942
65,2008/11/5,8:46:00,33-44.7000N,137-12.6800E,169,22.862,33.936
66,2008/11/5,8:47:00,33-44.4700N,137-12.7200E,169,22.867,33.9309
67,2008/11/5,8:48:00,33-44.2500N,137-12.7600E,170,22.877,33.9245
68,2008/11/5,8:49:00,33-44.0300N,137-12.8200E,169,23.06,33.9194
69,2008/11/5,8:50:00,33-43.8000N,137-12.8700E,169,23.312,33.9156
70,2008/11/5,8:51:00,33-43.5900N,137-12.9100E,169,23.526,33.9415
71,2008/11/5,8:52:00,33-43.3700N,137-12.9600E,169,23.582,33.9901
72,2008/11/5,8:53:00,33-43.1600N,137-13.0000E,169,23.597,34.0375
73,2008/11/5,8:54:00,33-42.9400N,137-13.0400E,169,23.643,34.0637
74,2008/11/5,8:55:00,33-42.7200N,137-13.0900E,170,23.651,34.0749
75,2008/11/5,8:56:00,33-42.5100N,137-13.1300E,170,23.672,34.0848
76,2008/11/5,8:57:00,33-42.2900N,137-13.1700E,171,23.713,34.0923
77,2008/11/5,8:58:00,33-42.0800N,137-13.2100E,171,23.713,34.0961
78,2008/11/5,8:59:00,33-41.8600N,137-13.2500E,171,23.705,34.1006
79,2008/11/5,9:00:00,33-41.6500N,137-13.2900E,171,23.703,34.1028
80,2008/11/5,9:01:00,33-41.4300N,137-13.3300E,171,23.614,34.1003
81,2008/11/5,9:02:00,33-41.2100N,137-13.3800E,170,23.423,34.1012
82,2008/11/5,9:03:00,33-40.9800N,137-13.4200E,170,23.273,34.0926
83,2008/11/5,9:04:00,33-40.7600N,137-13.4600E,171,23.191,34.0778
84,2008/11/5,9:05:00,33-40.5400N,137-13.5000E,170,23.141,34.0506
85,2008/11/5,9:06:00,33-40.3200N,137-13.5400E,171,23.093,34.0279
86,2008/11/5,9:07:00,33-40.1000N,137-13.5900E,170,23.076,34.0135
87,2008/11/5,9:08:00,33-39.8700N,137-13.6300E,170,23.046,34.0004
88,2008/11/5,9:09:00,33-39.6500N,137-13.6800E,170,22.993,33.9886
89,2008/11/5,9:10:00,33-39.4300N,137-13.7200E,170,22.983,33.9817
90,2008/11/5,9:11:00,33-39.2000N,137-13.7600E,170,22.993,33.9704
91,2008/11/5,9:12:00,33-38.9700N,137-13.8100E,170,23.024,33.9645
92,2008/11/5,9:13:00,33-38.7400N,137-13.8600E,169,23.055,33.9566
93,2008/11/5,9:14:00,33-38.5200N,137-13.9000E,169,23.09,33.9549
94,2008/11/5,9:15:00,33-38.2900N,137-13.9500E,170,23.087,33.9552
95,2008/11/5,9:16:00,33-38.0700N,137-14.0000E,169,23.064,33.96
96,2008/11/5,9:17:00,33-37.8400N,137-14.0500E,169,23.096,33.9622
97,2008/11/5,9:18:00,33-37.6100N,137-14.1000E,169,23.126,33.9614
98,2008/11/5,9:19:00,33-37.3800N,137-14.1500E,169,23.149,33.9575
99,2008/11/5,9:20:00,33-37.1600N,137-14.1900E,169,23.142,33.9498
100,2008/11/5,9:21:00,33-36.9200N,137-14.2400E,169,23.095,33.9495
101,2008/11/5,9:22:00,33-36.7000N,137-14.2900E,169,23.067,33.939
102,2008/11/5,9:23:00,33-36.4700N,137-14.3400E,169,23.044,33.9401
103,2008/11/5,9:24:00,33-36.2400N,137-14.3900E,170,23.025,33.942
104,2008/11/5,9:25:00,33-36.0100N,137-14.4400E,170,22.987,33.949
105,2008/11/5,9:26:00,33-35.7800N,137-14.4800E,170,22.943,33.9532
106,2008/11/5,9:27:00,33-35.5500N,137-14.5300E,170,22.844,33.9547
107,2008/11/5,9:28:00,33-35.3100N,137-14.5800E,170,22.787,33.9556
108,2008/11/5,9:29:00,33-35.0700N,137-14.6200E,170,22.746,33.9547
109,2008/11/5,9:30:00,33-34.8200N,137-14.6800E,169,22.704,33.9561
110,2008/11/5,9:31:00,33-34.5900N,137-14.7300E,170,22.643,33.9539
111,2008/11/5,9:32:00,33-34.3500N,137-14.7800E,170,22.612,33.9585
112,2008/11/5,9:33:00,33-34.1100N,137-14.8200E,170,22.598,33.9587
113,2008/11/5,9:34:00,33-33.8700N,137-14.8700E,169,22.654,33.9578
114,2008/11/5,9:35:00,33-33.6300N,137-14.9200E,170,22.694,33.9599
115,2008/11/5,9:36:00,33-33.3900N,137-14.9700E,170,22.697,33.9687
116,2008/11/5,9:37:00,33-33.1500N,137-15.0300E,170,22.675,33.9791
117,2008/11/5,9:38:00,33-32.9100N,137-15.0700E,169,22.652,33.9829
118,2008/11/5,9:39:00,33-32.6700N,137-15.1300E,169,22.586,33.9855
119,2008/11/5,9:40:00,33-32.4300N,137-15.1800E,169,22.52,33.984
120,2008/11/5,9:41:00,33-32.1900N,137-15.2300E,169,22.493,33.9846
121,2008/11/5,9:42:00,33-31.9500N,137-15.2800E,169,22.484,33.9865
122,2008/11/5,9:43:00,33-31.7100N,137-15.3400E,169,22.473,33.9926
123,2008/11/5,9:44:00,33-31.4800N,137-15.3900E,169,22.472,33.9977
124,2008/11/5,9:45:00,33-31.2400N,137-15.4500E,169,22.5,33.9978
125,2008/11/5,9:46:00,33-31.0000N,137-15.5000E,168,22.49,33.9963
126,2008/11/5,9:47:00,33-30.7600N,137-15.5600E,168,22.481,34.003
127,2008/11/5,9:48:00,33-30.5200N,137-15.6200E,168,22.515,34.0093
128,2008/11/5,9:49:00,33-30.2700N,137-15.6700E,168,22.54,34.0074
129,2008/11/5,9:50:00,33-30.0400N,137-15.7300E,168,22.532,33.994
130,2008/11/5,9:51:00,33-29.8000N,137-15.7900E,168,22.535,33.9937
131,2008/11/5,9:52:00,33-29.5600N,137-15.8400E,168,22.509,33.9888
132,2008/11/5,9:53:00,33-29.3200N,137-15.9000E,168,22.481,33.984
133,2008/11/5,9:54:00,33-29.0900N,137-15.9600E,168,22.508,33.9833
134,2008/11/5,9:55:00,33-28.8500N,137-16.0100E,168,22.489,33.99
135,2008/11/5,9:56:00,33-28.6200N,137-16.0700E,168,22.546,33.9945
136,2008/11/5,9:57:00,33-28.3800N,137-16.1300E,168,22.551,33.995
137,2008/11/5,9:58:00,33-28.1200N,137-16.2000E,167,22.554,33.9983
138,2008/11/5,9:59:00,33-27.8900N,137-16.2600E,166,22.539,33.9979
139,2008/11/5,10:00:00,33-27.6600N,137-16.3200E,167,22.544,33.9935
140,2008/11/5,10:01:00,33-27.4200N,137-16.3800E,167,22.555,33.9863
141,2008/11/5,10:02:00,33-27.1900N,137-16.4500E,167,22.483,33.9839
142,2008/11/5,10:03:00,33-26.9500N,137-16.5100E,167,22.46,33.9874
143,2008/11/5,10:04:00,33-26.7200N,137-16.5700E,167,22.448,33.9826
144,2008/11/5,10:05:00,33-26.4800N,137-16.6300E,167,22.465,33.9735
145,2008/11/5,10:06:00,33-26.2400N,137-16.6900E,168,22.491,33.9726
146,2008/11/5,10:07:00,33-26.0000N,137-16.7500E,167,22.496,33.9732
147,2008/11/5,10:08:00,33-25.7700N,137-16.8100E,168,22.467,33.9855
148,2008/11/5,10:09:00,33-25.5300N,137-16.8700E,167,22.472,33.9871
149,2008/11/5,10:10:00,33-25.2900N,137-16.9300E,167,22.483,33.9956
150,2008/11/5,10:11:00,33-25.0600N,137-17.0000E,167,22.46,33.9986
151,2008/11/5,10:12:00,33-24.8200N,137-17.0600E,167,22.49,33.9994
152,2008/11/5,10:13:00,33-24.5800N,137-17.1200E,167,22.603,33.9976
153,2008/11/5,10:14:00,33-24.3400N,137-17.1800E,167,22.583,33.9973
154,2008/11/5,10:15:00,33-24.1000N,137-17.2400E,167,22.519,33.9987
155,2008/11/5,10:16:00,33-23.8700N,137-17.3100E,167,22.423,33.9978
156,2008/11/5,10:17:00,33-23.6300N,137-17.3700E,167,22.383,34.0039
157,2008/11/5,10:18:00,33-23.4000N,137-17.4400E,166,22.335,34.0057
158,2008/11/5,10:19:00,33-23.1700N,137-17.5100E,166,22.279,34.006
159,2008/11/5,10:20:00,33-22.9300N,137-17.5700E,166,22.31,34.0061
160,2008/11/5,10:21:00,33-22.7000N,137-17.6400E,166,22.311,34.012
161,2008/11/5,10:22:00,33-22.4600N,137-17.7100E,166,22.309,34.0167
162,2008/11/5,10:23:00,33-22.2300N,137-17.7800E,165,22.413,34.017
163,2008/11/5,10:24:00,33-22.0000N,137-17.8500E,165,22.496,34.0156
164,2008/11/5,10:25:00,33-21.7600N,137-17.9300E,165,22.578,34.0073
165,2008/11/5,10:26:00,33-21.5200N,137-18.0000E,165,22.583,34.0029
166,2008/11/5,10:27:00,33-21.3000N,137-18.0700E,164,22.559,33.997
167,2008/11/5,10:28:00,33-21.0600N,137-18.1400E,164,22.55,33.9905
168,2008/11/5,10:29:00,33-20.8300N,137-18.2200E,164,22.648,33.9811
169,2008/11/5,10:30:00,33-20.6000N,137-18.2900E,165,22.668,33.9704
170,2008/11/5,10:31:00,33-20.3700N,137-18.3600E,165,22.682,33.9617
171,2008/11/5,10:32:00,33-20.1300N,137-18.4400E,165,22.721,33.9524
172,2008/11/5,10:33:00,33-19.9000N,137-18.5100E,165,22.72,33.9444
173,2008/11/5,10:34:00,33-19.6600N,137-18.5800E,165,22.76,33.9385
174,2008/11/5,10:35:00,33-19.4300N,137-18.6500E,166,22.754,33.9397
175,2008/11/5,10:36:00,33-19.2000N,137-18.7200E,165,22.728,33.9373
176,2008/11/5,10:37:00,33-18.9700N,137-18.7900E,165,22.738,33.9375
177,2008/11/5,10:38:00,33-18.7300N,137-18.8600E,165,22.834,33.9317
178,2008/11/5,10:39:00,33-18.5100N,137-18.9400E,164,23.201,33.9371
179,2008/11/5,10:40:00,33-18.2700N,137-19.0000E,167,23.313,33.9466
180,2008/11/5,10:41:00,33-18.0400N,137-19.0600E,169,23.352,33.9672
181,2008/11/5,10:42:00,33-17.8000N,137-19.1100E,170,23.358,33.9919
182,2008/11/5,10:43:00,33-17.5700N,137-19.1500E,170,23.351,34.009
183,2008/11/5,10:44:00,33-17.3300N,137-19.2000E,170,23.354,34.0111
184,2008/11/5,10:45:00,33-17.0900N,137-19.2400E,171,23.386,34.0098
185,2008/11/5,10:46:00,33-16.8500N,137-19.2800E,171,23.422,34.0011
186,2008/11/5,10:47:00,33-16.6200N,137-19.3300E,170,23.633,33.992
187,2008/11/5,10:48:00,33-16.3900N,137-19.3700E,171,23.813,33.9855
188,2008/11/5,10:49:00,33-16.1500N,137-19.4100E,171,23.872,33.9834
189,2008/11/5,10:50:00,33-15.9200N,137-19.4500E,171,23.814,34.0004
190,2008/11/5,10:51:00,33-15.6800N,137-19.5000E,170,23.578,34.0196
191,2008/11/5,10:52:00,33-15.4300N,137-19.5500E,171,23.55,34.0316
192,2008/11/5,10:53:00,33-15.1900N,137-19.5900E,171,23.584,34.0157
193,2008/11/5,10:54:00,33-14.9600N,137-19.6300E,171,23.597,33.986
194,2008/11/5,10:55:00,33-14.7300N,137-19.6700E,171,23.596,33.962
195,2008/11/5,10:56:00,33-14.4900N,137-19.7100E,171,23.704,33.9597
196,2008/11/5,10:57:00,33-14.2600N,137-19.7500E,171,23.711,33.9648
197,2008/11/5,10:58:00,33-14.0300N,137-19.7900E,171,23.647,33.9813
198,2008/11/5,10:59:00,33-13.7900N,137-19.8400E,170,23.645,34.0139
199,2008/11/5,11:00:00,33-13.5600N,137-19.8900E,169,23.591,34.0367
200,2008/11/5,11:01:00,33-13.3200N,137-19.9400E,169,23.593,34.0569
201,2008/11/5,11:02:00,33-13.0900N,137-20.0000E,168,23.529,34.0719
202,2008/11/5,11:03:00,33-12.8500N,137-20.0600E,167,23.54,34.083
203,2008/11/5,11:04:00,33-12.6300N,137-20.1200E,166,23.547,34.0962
204,2008/11/5,11:05:00,33-12.3900N,137-20.1800E,167,23.566,34.1016
205,2008/11/5,11:06:00,33-12.1600N,137-20.2500E,166,23.56,34.0983
206,2008/11/5,11:07:00,33-11.9300N,137-20.3200E,165,23.572,34.0996
207,2008/11/5,11:08:00,33-11.7000N,137-20.3900E,165,23.582,34.0948
208,2008/11/5,11:09:00,33-11.4600N,137-20.4600E,164,23.601,34.0997
209,2008/11/5,11:10:00,33-11.2300N,137-20.5400E,164,23.657,34.0963
210,2008/11/5,11:11:00,33-10.9900N,137-20.6200E,164,23.702,34.0977
211,2008/11/5,11:12:00,33-10.7600N,137-20.6900E,164,23.751,34.0941
212,2008/11/5,11:13:00,33-10.5200N,137-20.7700E,164,23.765,34.0792
213,2008/11/5,11:14:00,33-10.3000N,137-20.8500E,163,23.791,34.0788
214,2008/11/5,11:15:00,33-10.0600N,137-20.9400E,162,23.829,34.0736
215,2008/11/5,11:16:00,33-09.8300N,137-21.0200E,162,23.863,34.0731
216,2008/11/5,11:17:00,33-09.5900N,137-21.1100E,163,23.859,34.0656
217,2008/11/5,11:18:00,33-09.3600N,137-21.1900E,163,23.855,34.0577
218,2008/11/5,11:19:00,33-09.1000N,137-21.2900E,163,23.9,34.0508
219,2008/11/5,11:20:00,33-08.8600N,137-21.3700E,163,23.94,34.0443
220,2008/11/5,11:21:00,33-08.6300N,137-21.4500E,163,23.933,34.0306
221,2008/11/5,11:22:00,33-08.3900N,137-21.5300E,163,23.921,34.0241
222,2008/11/5,11:23:00,33-08.1500N,137-21.6200E,163,23.88,34.0173
223,2008/11/5,11:24:00,33-07.9100N,137-21.7000E,163,23.819,34.0144
224,2008/11/5,11:25:00,33-07.6700N,137-21.7900E,163,23.776,34.014
225,2008/11/5,11:26:00,33-07.4300N,137-21.8700E,163,23.735,34.0049
226,2008/11/5,11:27:00,33-07.1800N,137-21.9600E,163,23.792,34.0059
227,2008/11/5,11:28:00,33-06.9500N,137-22.0500E,162,23.837,33.9986
228,2008/11/5,11:29:00,33-06.7100N,137-22.1400E,162,23.897,33.999
229,2008/11/5,11:30:00,33-06.4600N,137-22.2300E,162,24.007,33.9991
230,2008/11/5,11:31:00,33-06.2200N,137-22.3200E,162,24.146,33.9981
231,2008/11/5,11:32:00,33-05.9700N,137-22.4100E,163,24.242,33.9912
232,2008/11/5,11:33:00,33-05.7200N,137-22.4900E,164,24.286,33.987
233,2008/11/5,11:34:00,33-05.4700N,137-22.5700E,164,24.309,33.9864
234,2008/11/5,11:35:00,33-05.2200N,137-22.6600E,164,24.325,33.9954
235,2008/11/5,11:36:00,33-04.9700N,137-22.7400E,165,24.345,33.992
236,2008/11/5,11:37:00,33-04.7100N,137-22.8200E,165,24.347,33.9957
237,2008/11/5,11:38:00,33-04.4600N,137-22.9000E,165,24.374,34.0011
238,2008/11/5,11:39:00,33-04.2000N,137-22.9800E,164,24.405,34.0014
239,2008/11/5,11:40:00,33-03.9500N,137-23.0600E,164,24.41,34.0001
240,2008/11/5,11:41:00,33-03.7000N,137-23.1400E,164,24.409,34.0044
241,2008/11/5,11:42:00,33-03.4400N,137-23.2200E,164,24.402,34.0094
242,2008/11/5,11:43:00,33-03.1900N,137-23.3000E,164,24.408,34.0109
243,2008/11/5,11:44:00,33-02.9400N,137-23.3800E,164,24.378,34.0162
244,2008/11/5,11:45:00,33-02.6800N,137-23.4700E,164,24.362,34.0166
245,2008/11/5,11:46:00,33-02.4100N,137-23.5600E,164,24.365,34.0181
246,2008/11/5,11:47:00,33-02.1500N,137-23.6400E,164,24.374,33.9777
247,2008/11/5,11:48:00,33-01.9000N,137-23.7200E,164,24.407,34.0122
248,2008/11/5,11:49:00,33-01.6400N,137-23.8100E,164,24.41,34.0133
249,2008/11/5,11:50:00,33-01.3800N,137-23.8900E,164,24.39,34.0151
250,2008/11/5,11:51:00,33-01.1300N,137-23.9800E,164,24.381,34.0142
251,2008/11/5,11:52:00,33-00.8700N,137-24.0600E,164,24.378,34.0086
252,2008/11/5,11:53:00,33-00.6200N,137-24.1500E,164,24.332,34.0028
253,2008/11/5,11:54:00,33-00.3600N,137-24.2400E,163,24.225,34.0048
254,2008/11/5,11:55:00,33-00.1000N,137-24.3200E,163,24.129,34.0022
255,2008/11/5,11:56:00,32-59.8500N,137-24.4000E,164,24.1,33.9983
256,2008/11/5,11:57:00,32-59.5900N,137-24.4900E,164,24.078,33.9749
257,2008/11/5,11:58:00,32-59.3300N,137-24.5800E,162,24.141,33.9737
258,2008/11/5,11:59:00,32-59.0700N,137-24.6800E,162,24.76,33.9731
259,2008/11/5,12:00:00,32-58.8200N,137-24.7700E,162,25.136,33.9692
260,2008/11/5,12:01:00,32-58.5500N,137-24.8700E,162,25.151,33.9896
261,2008/11/5,12:02:00,32-58.2900N,137-24.9700E,163,25.278,34.0377
262,2008/11/5,12:03:00,32-58.0300N,137-25.0600E,163,25.395,34.0743
263,2008/11/5,12:04:00,32-57.7600N,137-25.1500E,163,25.462,34.0955
264,2008/11/5,12:05:00,32-57.4900N,137-25.2400E,163,25.52,34.1139
265,2008/11/5,12:06:00,32-57.2300N,137-25.3300E,163,25.554,34.1221
266,2008/11/5,12:07:00,32-56.9700N,137-25.4300E,163,25.581,34.13
267,2008/11/5,12:08:00,32-56.7000N,137-25.5200E,163,25.613,34.1357
268,2008/11/5,12:09:00,32-56.4400N,137-25.6100E,163,25.64,34.134
269,2008/11/5,12:10:00,32-56.1700N,137-25.7000E,166,25.668,34.1396
270,2008/11/5,12:11:00,32-55.9000N,137-25.7700E,167,25.701,34.1437
271,2008/11/5,12:12:00,32-55.6300N,137-25.8300E,168,25.728,34.1447
272,2008/11/5,12:13:00,32-55.3500N,137-25.8900E,169,25.754,34.1473
273,2008/11/5,12:14:00,32-55.0800N,137-25.9500E,170,25.772,34.1509
274,2008/11/5,12:15:00,32-54.8100N,137-26.0000E,171,25.792,34.1576
275,2008/11/5,12:16:00,32-54.5500N,137-26.0500E,171,25.811,34.1641
276,2008/11/5,12:17:00,32-54.2800N,137-26.0900E,171,25.82,34.1684
277,2008/11/5,12:18:00,32-54.0200N,137-26.1400E,172,25.814,34.1748
278,2008/11/5,12:19:00,32-53.7500N,137-26.1800E,172,25.794,34.179
279,2008/11/5,12:20:00,32-53.4900N,137-26.2200E,172,25.779,34.1798
280,2008/11/5,12:21:00,32-53.2200N,137-26.2600E,172,25.781,34.1785
281,2008/11/5,12:22:00,32-52.9600N,137-26.3000E,172,25.779,34.1716
282,2008/11/5,12:23:00,32-52.6900N,137-26.3400E,172,25.781,34.1605
283,2008/11/5,12:24:00,32-52.4300N,137-26.3700E,172,25.785,34.1537
284,2008/11/5,12:25:00,32-52.1700N,137-26.4200E,172,25.789,34.1509
285,2008/11/5,12:26:00,32-51.9100N,137-26.4600E,171,25.785,34.1519
286,2008/11/5,12:27:00,32-51.6400N,137-26.5000E,172,25.776,34.1514
287,2008/11/5,12:28:00,32-51.3800N,137-26.5400E,172,25.767,34.1513
288,2008/11/5,12:29:00,32-51.1200N,137-26.5900E,172,25.758,34.1534
289,2008/11/5,12:30:00,32-50.8500N,137-26.6200E,173,25.753,34.1527
290,2008/11/5,12:31:00,32-50.6000N,137-26.6600E,173,25.752,34.1548
291,2008/11/5,12:32:00,32-50.3300N,137-26.7000E,173,25.743,34.1543
292,2008/11/5,12:33:00,32-50.0600N,137-26.7400E,173,25.733,34.1533
293,2008/11/5,12:34:00,32-49.8000N,137-26.7700E,173,25.714,34.1531
294,2008/11/5,12:35:00,32-49.5400N,137-26.8100E,172,25.702,34.1536
295,2008/11/5,12:36:00,32-49.2700N,137-26.8400E,173,25.693,34.1534
296,2008/11/5,12:37:00,32-49.0000N,137-26.8800E,173,25.687,34.1516
297,2008/11/5,12:38:00,32-48.7300N,137-26.9200E,173,25.699,34.1558
298,2008/11/5,12:39:00,32-48.4700N,137-26.9600E,173,25.731,34.1657
299,2008/11/5,12:40:00,32-48.2000N,137-26.9900E,173,25.803,34.1757
300,2008/11/5,12:41:00,32-47.9100N,137-27.0300E,173,25.831,34.2005
301,2008/11/5,12:42:00,32-47.6500N,137-27.0800E,171,25.846,34.2301
302,2008/11/5,12:43:00,32-47.3800N,137-27.1300E,170,25.915,34.2066
303,2008/11/5,12:44:00,32-47.1200N,137-27.1800E,170,25.976,34.248
304,2008/11/5,12:45:00,32-46.8600N,137-27.2200E,171,26.003,34.2318
305,2008/11/5,12:46:00,32-46.6000N,137-27.2700E,171,26.014,34.2197
306,2008/11/5,12:47:00,32-46.3300N,137-27.3200E,171,26.02,34.2136
307,2008/11/5,12:48:00,32-46.0800N,137-27.3600E,171,26.037,34.2097
308,2008/11/5,12:49:00,32-45.8200N,137-27.4100E,171,26.096,34.1803
309,2008/11/5,12:50:00,32-45.5600N,137-27.4500E,171,26.12,34.1985
310,2008/11/5,12:51:00,32-45.3000N,137-27.5000E,171,26.129,---
311,2008/11/5,12:52:00,32-45.0400N,137-27.5400E,171,26.139,34.1962
312,2008/11/5,12:53:00,32-44.7900N,137-27.5800E,171,26.142,34.1909
313,2008/11/5,12:54:00,32-44.5300N,137-27.6300E,171,26.148,34.1917
314,2008/11/5,12:55:00,32-44.2800N,137-27.6700E,171,26.148,34.1889
315,2008/11/5,12:56:00,32-44.0200N,137-27.7200E,172,26.152,---
316,2008/11/5,12:57:00,32-43.7700N,137-27.7600E,172,26.153,34.1829
317,2008/11/5,12:58:00,32-43.5100N,137-27.8000E,172,26.152,34.1842
318,2008/11/5,12:59:00,32-43.2600N,137-27.8400E,172,26.161,34.1847
319,2008/11/5,13:00:00,32-43.0000N,137-27.8800E,172,26.169,34.183
320,2008/11/5,13:01:00,32-42.7500N,137-27.9200E,172,26.177,34.1774
321,2008/11/5,13:02:00,32-42.5000N,137-27.9600E,172,26.179,34.1791
322,2008/11/5,13:03:00,32-42.2400N,137-27.9900E,172,26.181,34.1805
323,2008/11/5,13:04:00,32-41.9900N,137-28.0300E,172,26.182,34.179
324,2008/11/5,13:05:00,32-41.7300N,137-28.0700E,173,26.185,34.1778
325,2008/11/5,13:06:00,32-41.4800N,137-28.1000E,173,26.184,34.1772
326,2008/11/5,13:07:00,32-41.2000N,137-28.1400E,173,26.182,34.1765
327,2008/11/5,13:08:00,32-40.9400N,137-28.1800E,173,26.178,34.1762
328,2008/11/5,13:09:00,32-40.6900N,137-28.2100E,173,26.176,34.1762
329,2008/11/5,13:10:00,32-40.4400N,137-28.2400E,174,26.172,34.174
330,2008/11/5,13:11:00,32-40.1800N,137-28.2700E,174,26.172,34.1741
331,2008/11/5,13:12:00,32-39.9200N,137-28.3100E,174,26.166,34.1729
332,2008/11/5,13:13:00,32-39.6700N,137-28.3400E,174,26.154,34.1726
333,2008/11/5,13:14:00,32-39.4100N,137-28.3700E,173,26.138,34.1729
334,2008/11/5,13:15:00,32-39.1600N,137-28.4000E,173,26.139,34.1686
335,2008/11/5,13:16:00,32-38.9000N,137-28.4300E,174,26.139,34.1634
336,2008/11/5,13:17:00,32-38.6500N,137-28.4700E,174,26.13,34.1601
337,2008/11/5,13:18:00,32-38.4000N,137-28.5000E,174,26.127,34.1571
338,2008/11/5,13:19:00,32-38.1400N,137-28.5300E,174,26.118,34.1549
339,2008/11/5,13:20:00,32-37.8800N,137-28.5500E,174,26.102,34.1589
340,2008/11/5,13:21:00,32-37.6300N,137-28.5800E,174,26.088,34.1559
341,2008/11/5,13:22:00,32-37.3800N,137-28.6100E,174,26.074,34.1585
342,2008/11/5,13:23:00,32-37.1300N,137-28.6400E,174,26.068,34.1571
343,2008/11/5,13:24:00,32-36.8700N,137-28.6600E,174,26.067,34.1578
344,2008/11/5,13:25:00,32-36.6100N,137-28.6900E,174,26.065,34.1605
345,2008/11/5,13:26:00,32-36.3600N,137-28.7200E,174,26.049,34.1675
346,2008/11/5,13:27:00,32-36.1100N,137-28.7400E,174,26.03,34.1728
347,2008/11/5,13:28:00,32-35.8500N,137-28.7700E,174,26.013,34.1768
348,2008/11/5,13:29:00,32-35.6000N,137-28.8000E,174,26.008,34.1763
349,2008/11/5,13:30:00,32-35.3400N,137-28.8300E,174,26.012,34.1759
350,2008/11/5,13:31:00,32-35.0900N,137-28.8500E,175,26.02,34.1772
351,2008/11/5,13:32:00,32-34.8400N,137-28.8800E,175,26.015,34.1781
352,2008/11/5,13:33:00,32-34.5800N,137-28.9100E,175,26.003,34.1775
353,2008/11/5,13:34:00,32-34.3000N,137-28.9300E,175,26.004,34.1766
354,2008/11/5,13:35:00,32-34.0500N,137-28.9600E,175,25.993,34.1709
355,2008/11/5,13:36:00,32-33.7900N,137-28.9800E,175,25.971,34.1721
356,2008/11/5,13:37:00,32-33.5400N,137-29.0100E,175,25.952,34.1751
357,2008/11/5,13:38:00,32-33.2900N,137-29.0300E,175,25.926,34.1664
358,2008/11/5,13:39:00,32-33.0300N,137-29.0600E,174,25.849,34.1575
359,2008/11/5,13:40:00,32-32.7800N,137-29.0800E,175,25.837,34.1541
360,2008/11/5,13:41:00,32-32.5300N,137-29.1100E,175,25.836,34.147
361,2008/11/5,13:42:00,32-32.2700N,137-29.1300E,175,25.838,34.1384
362,2008/11/5,13:43:00,32-32.0200N,137-29.1500E,175,25.835,34.1363
363,2008/11/5,13:44:00,32-31.7700N,137-29.1800E,174,25.84,34.135
364,2008/11/5,13:45:00,32-31.5300N,137-29.2100E,174,25.837,34.1396
365,2008/11/5,13:46:00,32-31.2700N,137-29.2400E,174,25.829,34.1352
366,2008/11/5,13:47:00,32-31.0200N,137-29.2700E,174,25.826,34.1349
367,2008/11/5,13:48:00,32-30.7800N,137-29.3000E,174,25.826,34.1339
368,2008/11/5,13:49:00,32-30.5200N,137-29.3300E,174,25.831,34.1345
369,2008/11/5,13:50:00,32-30.2800N,137-29.3600E,174,25.828,34.1352
370,2008/11/5,13:51:00,32-30.0200N,137-29.3900E,174,25.822,34.1379
371,2008/11/5,13:52:00,32-29.7800N,137-29.4200E,172,25.813,34.1394
372,2008/11/5,13:53:00,32-29.5300N,137-29.4600E,172,25.805,34.1412
373,2008/11/5,13:54:00,32-29.2800N,137-29.5000E,172,25.806,34.1408
374,2008/11/5,13:55:00,32-29.0400N,137-29.5400E,172,25.798,34.1418
375,2008/11/5,13:56:00,32-28.7900N,137-29.5800E,172,25.798,34.142
376,2008/11/5,13:57:00,32-28.5400N,137-29.6200E,172,25.796,34.1421